Tiempo cada hora Barroso

Hoy, 22 Junio, Martes

Tiempo Temperatura Precipitaciones Viento Presión Humedad
00:00 +12°C° 0 mm 0 mps 683 mmHg 79%
01:00 +12°C° 0 mm 0 mps 682 mmHg 80%
02:00 +12°C° 0 mm 0 mps 682 mmHg 81%
03:00 +12°C° 0 mm 0 mps 682 mmHg 81%
04:00 +12°C° 0 mm 0 mps 682 mmHg 81%
05:00 +12°C° 0 mm 0 mps 682 mmHg 81%
06:00 +11°C° 0 mm 0 mps 682 mmHg 81%
07:00 +14°C° 0 mm 0 mps 683 mmHg 73%
08:00 +16°C° 0 mm 0 mps 684 mmHg 65%
09:00 +18°C° 0 mm 0 mps 685 mmHg 57%
10:00 +22°C° 0 mm 1 mps 685 mmHg 53%
11:00 +24°C° 0 mm 1 mps 684 mmHg 49%
12:00 +26°C° 0 mm 2 mps 684 mmHg 45%
13:00 +25°C° 0 mm 2 mps 684 mmHg 46%
14:00 +25°C° 0 mm 2 mps 683 mmHg 47%
15:00 +25°C° 0 mm 3 mps 683 mmHg 48%
16:00 +23°C° 0 mm 2 mps 683 mmHg 57%
17:00 +20°C° 0 mm 2 mps 683 mmHg 67%
18:00 +17°C° 0 mm 2 mps 683 mmHg 76%
19:00 +17°C° 0 mm 2 mps 683 mmHg 79%
20:00 +16°C° 0 mm 2 mps 683 mmHg 83%
21:00 +15°C° 0 mm 1 mps 683 mmHg 87%
22:00 +15°C° 0 mm 1 mps 683 mmHg 89%
23:00 +14°C° 0 mm 2 mps 683 mmHg 91%

Mañana, 23 Junio, Miércoles

Tiempo Temperatura Precipitaciones Viento Presión Humedad
00:00 +14°C° 0 mm 2 mps 683 mmHg 93%
01:00 +13°C° 0 mm 2 mps 683 mmHg 94%
02:00 +13°C° 0 mm 2 mps 683 mmHg 95%
03:00 +13°C° 0 mm 2 mps 683 mmHg 97%
04:00 +13°C° 0 mm 2 mps 683 mmHg 96%
05:00 +12°C° 0 mm 3 mps 683 mmHg 94%
06:00 +12°C° 0 mm 3 mps 684 mmHg 93%
07:00 +13°C° 0 mm 3 mps 684 mmHg 89%
08:00 +14°C° 0 mm 3 mps 685 mmHg 84%
09:00 +15°C° 0 mm 4 mps 685 mmHg 79%
10:00 +18°C° 0 mm 4 mps 685 mmHg 72%
11:00 +19°C° 0 mm 4 mps 685 mmHg 65%
12:00 +21°C° 0 mm 4 mps 685 mmHg 57%
13:00 +21°C° 0 mm 3 mps 685 mmHg 56%
14:00 +21°C° 0 mm 3 mps 684 mmHg 55%
15:00 +21°C° 0 mm 3 mps 684 mmHg 55%
16:00 +20°C° 0 mm 3 mps 684 mmHg 60%
17:00 +19°C° 0 mm 3 mps 684 mmHg 65%
18:00 +17°C° 0 mm 3 mps 684 mmHg 70%
19:00 +16°C° 0 mm 3 mps 684 mmHg 74%
20:00 +14°C° 0 mm 3 mps 684 mmHg 79%
21:00 +13°C° 0 mm 3 mps 684 mmHg 84%
22:00 +13°C° 0 mm 3 mps 684 mmHg 85%
23:00 +13°C° 0 mm 2 mps 684 mmHg 87%

Pasado mañana, 24 Junio, Jueves

Tiempo Temperatura Precipitaciones Viento Presión Humedad
00:00 +13°C° 0 mm 2 mps 684 mmHg 88%
01:00 +12°C° 0 mm 2 mps 683 mmHg 89%
02:00 +12°C° 0 mm 2 mps 683 mmHg 91%
03:00 +12°C° 0 mm 2 mps 683 mmHg 92%
04:00 +12°C° 0 mm 2 mps 683 mmHg 93%
05:00 +10°C° 0 mm 2 mps 683 mmHg 94%
06:00 +10°C° 0 mm 2 mps 683 mmHg 94%
07:00 +13°C° 0 mm 2 mps 683 mmHg 86%
08:00 +14°C° 0 mm 3 mps 684 mmHg 78%
09:00 +17°C° 0 mm 4 mps 684 mmHg 69%
10:00 +19°C° 0 mm 3 mps 684 mmHg 63%
11:00 +20°C° 0 mm 3 mps 684 mmHg 57%
12:00 +22°C° 0 mm 3 mps 684 mmHg 51%
13:00 +23°C° 0 mm 2 mps 683 mmHg 50%
14:00 +24°C° 0 mm 2 mps 683 mmHg 48%
15:00 +24°C° 0 mm 2 mps 683 mmHg 46%
16:00 +21°C° 0 mm 2 mps 682 mmHg 56%
17:00 +19°C° 0 mm 2 mps 682 mmHg 66%
18:00 +16°C° 0 mm 2 mps 682 mmHg 76%
19:00 +16°C° 0 mm 2 mps 682 mmHg 81%
20:00 +15°C° 0 mm 2 mps 682 mmHg 85%
21:00 +14°C° 0 mm 2 mps 682 mmHg 90%
22:00 +14°C° 0 mm 1 mps 682 mmHg 90%
23:00 +13°C° 0 mm 1 mps 682 mmHg 90%

25 Junio, Viernes

Tiempo Temperatura Precipitaciones Viento Presión Humedad
00:00 +13°C° 0 mm 1 mps 682 mmHg 91%
01:00 +13°C° 0 mm 1 mps 681 mmHg 91%
02:00 +13°C° 0 mm 1 mps 681 mmHg 91%
03:00 +12°C° 0 mm 1 mps 681 mmHg 91%
04:00 +11°C° 0 mm 0 mps 681 mmHg 90%
05:00 +11°C° 0 mm 0 mps 681 mmHg 90%
06:00 +11°C° 0 mm 0 mps 681 mmHg 90%
07:00 +13°C° 0 mm 0 mps 682 mmHg 82%
08:00 +16°C° 0 mm 1 mps 683 mmHg 74%
09:00 +20°C° 0 mm 1 mps 684 mmHg 66%
10:00 +22°C° 0 mm 1 mps 684 mmHg 59%
11:00 +24°C° 0 mm 1 mps 684 mmHg 52%
12:00 +26°C° 0 mm 1 mps 684 mmHg 45%
13:00 +26°C° 0 mm 1 mps 683 mmHg 43%
14:00 +27°C° 0 mm 1 mps 683 mmHg 41%
15:00 +27°C° 0 mm 1 mps 682 mmHg 40%
16:00 +25°C° 0 mm 1 mps 682 mmHg 49%
17:00 +22°C° 0 mm 1 mps 682 mmHg 58%
18:00 +19°C° 0 mm 2 mps 682 mmHg 67%
19:00 +19°C° 0 mm 1 mps 682 mmHg 72%
20:00 +18°C° 0 mm 1 mps 682 mmHg 77%
21:00 +16°C° 0 mm 1 mps 682 mmHg 82%
22:00 +15°C° 0 mm 1 mps 682 mmHg 83%
23:00 +15°C° 0 mm 1 mps 682 mmHg 84%

26 Junio, Sábado

Tiempo Temperatura Precipitaciones Viento Presión Humedad
00:00 +15°C° 0 mm 1 mps 682 mmHg 85%
01:00 +14°C° 0 mm 1 mps 682 mmHg 85%
02:00 +14°C° 0 mm 1 mps 682 mmHg 85%
03:00 +14°C° 0 mm 1 mps 682 mmHg 85%
04:00 +14°C° 0 mm 1 mps 682 mmHg 85%
05:00 +13°C° 0 mm 1 mps 682 mmHg 84%
06:00 +13°C° 0 mm 1 mps 682 mmHg 84%
07:00 +15°C° 0 mm 1 mps 683 mmHg 76%
08:00 +17°C° 0 mm 2 mps 684 mmHg 68%
09:00 +19°C° 0 mm 2 mps 684 mmHg 60%
10:00 +21°C° 0 mm 2 mps 684 mmHg 54%
11:00 +24°C° 0 mm 3 mps 684 mmHg 48%
12:00 +25°C° 0 mm 4 mps 684 mmHg 42%
13:00 +25°C° 0 mm 4 mps 684 mmHg 42%
14:00 +25°C° 0 mm 4 mps 683 mmHg 42%
15:00 +25°C° 0 mm 4 mps 683 mmHg 42%
16:00 +21°C° 0 mm 3 mps 683 mmHg 52%
17:00 +19°C° 0 mm 3 mps 683 mmHg 61%
18:00 +16°C° 0 mm 2 mps 682 mmHg 71%
19:00 +15°C° 0 mm 2 mps 683 mmHg 73%
20:00 +15°C° 0 mm 2 mps 683 mmHg 75%
21:00 +14°C° 0 mm 1 mps 683 mmHg 77%
22:00 +14°C° 0 mm 1 mps 683 mmHg 79%
23:00 +13°C° 0 mm 1 mps 683 mmHg 81%

27 Junio, Domingo

Tiempo Temperatura Precipitaciones Viento Presión Humedad
00:00 +13°C° 0 mm 1 mps 682 mmHg 82%
01:00 +12°C° 0 mm 1 mps 682 mmHg 85%
02:00 +12°C° 0 mm 1 mps 682 mmHg 87%
03:00 +11°C° 0 mm 1 mps 682 mmHg 90%
04:00 +11°C° 0 mm 1 mps 682 mmHg 90%
05:00 +11°C° 0 mm 1 mps 682 mmHg 90%
06:00 +11°C° 0 mm 1 mps 682 mmHg 90%
07:00 +13°C° 0 mm 1 mps 682 mmHg 82%
08:00 +15°C° 0 mm 1 mps 683 mmHg 74%
09:00 +16°C° 0 mm 1 mps 684 mmHg 66%
10:00 +20°C° 0 mm 1 mps 684 mmHg 56%
11:00 +21°C° 0 mm 2 mps 684 mmHg 46%
12:00 +24°C° 0 mm 2 mps 684 mmHg 36%
13:00 +25°C° 0 mm 2 mps 684 mmHg 34%
14:00 +25°C° 0 mm 2 mps 683 mmHg 32%
15:00 +26°C° 0 mm 2 mps 683 mmHg 29%
16:00 +23°C° 0 mm 2 mps 682 mmHg 37%
17:00 +19°C° 0 mm 2 mps 682 mmHg 44%
18:00 +18°C° 0 mm 1 mps 682 mmHg 52%
19:00 +16°C° 0 mm 1 mps 682 mmHg 58%
20:00 +15°C° 0 mm 1 mps 682 mmHg 64%
21:00 +14°C° 0 mm 1 mps 683 mmHg 70%
22:00 +13°C° 0 mm 1 mps 683 mmHg 72%
23:00 +13°C° 0 mm 1 mps 683 mmHg 73%
Mostrar más

Necesitamos Su Consentimiento

Meteoprog y nuestros Proveedores de Servicios pueden almacenar y acceder a sus datos personales como cookies, identificadores de dispositivo u otras tecnologías similares de su dispositivo y procesar dichos datos para personalizar contenido y anuncios, además de ofrecer funciones de redes sociales y analizar el tráfico.

  • Almacenar y/o acceder a información en su dispositivo

    Se puede almacenar o acceder a cookies, identificadores de dispositivo u otra información de su dispositivo para los fines anteriormente indicados.

  • Anuncios y contenido personalizados, medición de anuncios y contenido, percepciones del público, y desarrollo de productos

    Los anuncios y el contenido pueden personalizarse en base a su perfil. Se pueden añadir más datos para personalizar mejor los anuncios y contenidos. Se puede medir el rendimiento de los anuncios y contenidos. Se puede obtener la percepción sobre el público que ha visto los anuncios y contenidos. Dichos datos pueden usarse para desarrollar o mejorar la experiencia del usuario, sistemas y software.

Al hacer clic en ‘Estoy De Acuerdo’ usted permitirá el uso de las cookies, identificadores de dispositivo, balizas web u otras tecnologías similares indicadas. Su configuración puede cambiarse desde el navegador de su dispositivo.

Para ciertos fines, los intereses legítimos pueden ser considerados por encima del consentimiento. Puede leer más sobre ello en nuestra Política de Privacidad y Cookies.